DLH7VY LKPR-EDDM

Flight info

Callsign DLH7VY
Flight time 0h 33m
Altitude 30000
Route DOBEN DCT NIRGO T108 LANDU LANDU2B
Aircraft A321/M-SDE2E3FGIJ1LORWXYZ/HB1

Departure

Time 2026-05-06 20:19
Airport Václav Havel Airport Prague (LKPR)

Arrival

Time 2026-05-06 20:53
Airport Munich Airport (EDDM)
Time Latitude Longitude Altitude Speed Heading
2026-05-06 19:53 50.10368 14.26741 1176 ft 0 kts 36°
2026-05-06 20:10 50.10355 14.26727 1174 ft 4 kts 33°
2026-05-06 20:11 50.10332 14.26709 1175 ft 4 kts
2026-05-06 20:11 50.10320 14.26714 1175 ft 0 kts 304°
2026-05-06 20:14 50.10339 14.26672 1174 ft 10 kts 304°
2026-05-06 20:15 50.10399 14.26540 1176 ft 19 kts 307°
2026-05-06 20:15 50.10482 14.26369 1174 ft 21 kts 304°
2026-05-06 20:15 50.10539 14.26195 1176 ft 16 kts 276°
2026-05-06 20:15 50.10525 14.26031 1180 ft 14 kts 259°
2026-05-06 20:16 50.10506 14.25893 1184 ft 13 kts 258°
2026-05-06 20:16 50.10488 14.25752 1185 ft 14 kts 259°
2026-05-06 20:16 50.10435 14.25659 1186 ft 13 kts 191°
2026-05-06 20:16 50.10392 14.25655 1186 ft 0 kts 178°
2026-05-06 20:17 50.10391 14.25656 1186 ft 1 kts 178°
2026-05-06 20:17 50.10363 14.25659 1186 ft 7 kts 173°
2026-05-06 20:18 50.10298 14.25683 1187 ft 11 kts 162°
2026-05-06 20:18 50.10225 14.25730 1188 ft 12 kts 142°
2026-05-06 20:18 50.10171 14.25837 1188 ft 14 kts 127°
2026-05-06 20:18 50.10039 14.26112 1194 ft 65 kts 127°
2026-05-06 20:19 50.09627 14.26968 1214 ft 131 kts 127°
2026-05-06 20:19 50.08984 14.28242 1632 ft 150 kts 129°
2026-05-06 20:19 50.08318 14.29517 2317 ft 156 kts 126°
2026-05-06 20:19 50.07661 14.30864 3028 ft 156 kts 124°
2026-05-06 20:20 50.07025 14.32214 3726 ft 155 kts 126°
2026-05-06 20:20 50.06383 14.33571 4278 ft 156 kts 128°
2026-05-06 20:20 50.05713 14.34975 4651 ft 171 kts 128°
2026-05-06 20:20 50.04954 14.36551 4900 ft 193 kts 128°
2026-05-06 20:21 50.04092 14.38336 5014 ft 220 kts 128°
2026-05-06 20:21 50.03125 14.40338 5123 ft 243 kts 128°
2026-05-06 20:21 50.02051 14.42556 5334 ft 267 kts 129°
2026-05-06 20:21 50.00924 14.44920 5965 ft 276 kts 125°
2026-05-06 20:22 50.00382 14.46727 6406 ft 283 kts 107°
2026-05-06 20:22 50.00330 14.49805 7065 ft 292 kts 77°
2026-05-06 20:22 50.01257 14.52617 7750 ft 298 kts 47°
2026-05-06 20:22 50.02859 14.54680 8445 ft 301 kts 36°
2026-05-06 20:23 50.04558 14.56629 9164 ft 305 kts 36°
2026-05-06 20:23 50.06332 14.58472 9830 ft 308 kts 24°
2026-05-06 20:23 50.08417 14.59403 10152 ft 322 kts
2026-05-06 20:23 50.10677 14.58907 10283 ft 337 kts 335°
2026-05-06 20:24 50.12673 14.56907 10415 ft 348 kts 311°
2026-05-06 20:24 50.13979 14.53701 10543 ft 358 kts 286°
2026-05-06 20:24 50.14261 14.49852 10901 ft 361 kts 261°
2026-05-06 20:24 50.13584 14.46097 11413 ft 362 kts 244°
2026-05-06 20:25 50.12221 14.42868 11965 ft 363 kts 227°
2026-05-06 20:25 50.10463 14.40017 12538 ft 366 kts 225°
2026-05-06 20:25 50.08659 14.37179 13127 ft 369 kts 224°
2026-05-06 20:25 50.06830 14.34346 13695 ft 373 kts 224°
2026-05-06 20:26 50.04979 14.31493 14224 ft 375 kts 224°
2026-05-06 20:26 50.03121 14.28626 14763 ft 377 kts 224°
2026-05-06 20:26 50.01274 14.25774 15300 ft 379 kts 224°
2026-05-06 20:26 49.99397 14.22869 15801 ft 381 kts 225°
2026-05-06 20:27 49.97507 14.19933 16291 ft 384 kts 225°
2026-05-06 20:27 49.95608 14.16988 16789 ft 387 kts 225°
2026-05-06 20:27 49.93694 14.14025 17280 ft 389 kts 225°
2026-05-06 20:27 49.91765 14.11044 17769 ft 392 kts 225°
2026-05-06 20:28 49.89826 14.08053 18216 ft 394 kts 225°
2026-05-06 20:28 49.87872 14.05041 18634 ft 396 kts 225°
2026-05-06 20:28 49.85912 14.02021 19066 ft 398 kts 224°
2026-05-06 20:28 49.83936 13.98983 19487 ft 400 kts 224°
2026-05-06 20:29 49.81952 13.95942 19929 ft 402 kts 224°
2026-05-06 20:29 49.79956 13.92887 20344 ft 405 kts 224°
2026-05-06 20:29 49.77968 13.89850 20721 ft 408 kts 224°
2026-05-06 20:29 49.75948 13.86762 21125 ft 410 kts 224°
2026-05-06 20:30 49.73912 13.83649 21539 ft 412 kts 224°
2026-05-06 20:30 49.69818 13.77397 22356 ft 415 kts 224°
2026-05-06 20:30 49.67754 13.74254 22761 ft 417 kts 224°
2026-05-06 20:31 49.65681 13.71102 23155 ft 419 kts 224°
2026-05-06 20:31 49.63596 13.67933 23522 ft 421 kts 224°
2026-05-06 20:31 49.61526 13.64789 23757 ft 422 kts 224°
2026-05-06 20:31 49.59434 13.61621 23812 ft 421 kts 224°
2026-05-06 20:32 49.57344 13.58463 23820 ft 420 kts 224°
2026-05-06 20:32 49.55249 13.55302 23841 ft 421 kts 224°
2026-05-06 20:32 49.53138 13.52124 23826 ft 423 kts 224°
2026-05-06 20:32 49.51031 13.48953 23826 ft 424 kts 224°
2026-05-06 20:33 49.48923 13.45783 23825 ft 424 kts 224°
2026-05-06 20:33 49.46807 13.42603 23826 ft 424 kts 224°
2026-05-06 20:33 49.44697 13.39432 23826 ft 424 kts 224°
2026-05-06 20:33 49.42609 13.36301 23825 ft 424 kts 224°
2026-05-06 20:34 49.40488 13.33127 23818 ft 425 kts 223°
2026-05-06 20:34 49.38362 13.29948 23822 ft 426 kts 223°
2026-05-06 20:34 49.36236 13.26773 23821 ft 426 kts 223°
2026-05-06 20:34 49.34111 13.23607 23820 ft 426 kts 223°
2026-05-06 20:35 49.31980 13.20432 23443 ft 430 kts 223°
2026-05-06 20:35 49.29797 13.17185 23070 ft 443 kts 223°
2026-05-06 20:35 49.27576 13.13889 22794 ft 446 kts 223°
2026-05-06 20:35 49.25368 13.10619 22523 ft 446 kts 223°
2026-05-06 20:36 49.23137 13.07327 22257 ft 445 kts 222°
2026-05-06 20:36 49.20722 13.04391 21980 ft 442 kts 213°
2026-05-06 20:36 49.18046 13.02069 21712 ft 441 kts 206°
2026-05-06 20:36 49.15278 13.00066 21452 ft 440 kts 205°
2026-05-06 20:37 49.12509 12.98062 21190 ft 438 kts 205°
2026-05-06 20:37 49.09762 12.96071 20809 ft 435 kts 205°
2026-05-06 20:37 49.07068 12.94112 19939 ft 431 kts 206°
2026-05-06 20:37 49.04381 12.92151 19138 ft 425 kts 206°
2026-05-06 20:38 49.01722 12.90213 18331 ft 420 kts 206°
2026-05-06 20:38 48.99098 12.88306 17470 ft 415 kts 205°
2026-05-06 20:38 48.96511 12.86430 16696 ft 408 kts 206°
2026-05-06 20:38 48.93958 12.84583 15924 ft 402 kts 206°
2026-05-06 20:39 48.91480 12.82799 15186 ft 396 kts 206°
2026-05-06 20:39 48.89009 12.81027 14472 ft 390 kts 206°
2026-05-06 20:39 48.86566 12.79280 13797 ft 385 kts 206°
2026-05-06 20:39 48.84157 12.77557 13095 ft 379 kts 206°
2026-05-06 20:40 48.81795 12.75869 12462 ft 371 kts 207°
2026-05-06 20:40 48.79483 12.74218 11854 ft 362 kts 207°
2026-05-06 20:40 48.77226 12.72607 11279 ft 353 kts 207°
2026-05-06 20:40 48.75057 12.71063 11092 ft 335 kts 208°
2026-05-06 20:41 48.72983 12.69588 10771 ft 324 kts 208°
2026-05-06 20:41 48.70942 12.68137 10540 ft 324 kts 208°
2026-05-06 20:41 48.68898 12.66678 10292 ft 323 kts 208°
2026-05-06 20:41 48.66868 12.65224 10045 ft 323 kts 208°
2026-05-06 20:42 48.64882 12.63737 9821 ft 320 kts 214°
2026-05-06 20:42 48.63212 12.61576 9685 ft 315 kts 231°
2026-05-06 20:42 48.62077 12.58797 9173 ft 309 kts 248°
2026-05-06 20:42 48.61604 12.55645 8731 ft 308 kts 263°
2026-05-06 20:43 48.61404 12.52369 8469 ft 315 kts 263°
2026-05-06 20:43 48.61183 12.49073 8214 ft 315 kts 263°
2026-05-06 20:43 48.60957 12.45794 7956 ft 310 kts 263°
2026-05-06 20:43 48.60737 12.42623 7703 ft 296 kts 263°
2026-05-06 20:44 48.60520 12.39588 7454 ft 284 kts 263°
2026-05-06 20:44 48.60307 12.36669 7205 ft 274 kts 263°
2026-05-06 20:44 48.60090 12.33853 6959 ft 265 kts 261°
2026-05-06 20:44 48.59440 12.31351 6719 ft 260 kts 236°
2026-05-06 20:45 48.58161 12.29455 6483 ft 259 kts 217°
2026-05-06 20:45 48.56518 12.28294 6238 ft 262 kts 206°
2026-05-06 20:45 48.54804 12.27346 5978 ft 262 kts 205°
2026-05-06 20:45 48.53081 12.26432 5721 ft 263 kts 205°
2026-05-06 20:46 48.51347 12.25528 5472 ft 263 kts 205°
2026-05-06 20:46 48.49612 12.24624 5221 ft 263 kts 205°
2026-05-06 20:46 48.47884 12.23717 4969 ft 261 kts 205°
2026-05-06 20:46 48.46184 12.22832 4722 ft 261 kts 205°
2026-05-06 20:47 48.44464 12.21951 4456 ft 260 kts 205°
2026-05-06 20:47 48.42764 12.21002 4196 ft 256 kts 215°
2026-05-06 20:47 48.41455 12.19332 4040 ft 245 kts 233°
2026-05-06 20:47 48.40323 12.17413 4010 ft 244 kts 234°
2026-05-06 20:48 48.39355 12.15349 4009 ft 239 kts 250°
2026-05-06 20:48 48.38983 12.12956 4008 ft 235 kts 265°
2026-05-06 20:48 48.38807 12.10502 4009 ft 237 kts 266°
2026-05-06 20:48 48.38632 12.08065 4011 ft 237 kts 265°
2026-05-06 20:49 48.38453 12.05640 4007 ft 226 kts 265°
2026-05-06 20:49 48.38281 12.03341 4008 ft 210 kts 265°
2026-05-06 20:49 48.38126 12.01253 3947 ft 197 kts 265°
2026-05-06 20:49 48.37977 11.99260 3749 ft 186 kts 265°
2026-05-06 20:50 48.37837 11.97388 3520 ft 174 kts 266°
2026-05-06 20:50 48.37706 11.95633 3295 ft 164 kts 265°
2026-05-06 20:50 48.37585 11.94018 3092 ft 146 kts 266°
2026-05-06 20:50 48.37474 11.92544 2891 ft 139 kts 265°
2026-05-06 20:51 48.37365 11.91081 2703 ft 141 kts 265°
2026-05-06 20:51 48.37254 11.89612 2505 ft 142 kts 264°
2026-05-06 20:51 48.37143 11.88132 2294 ft 142 kts 263°
2026-05-06 20:51 48.37032 11.86658 2097 ft 141 kts 262°
2026-05-06 20:52 48.36930 11.85198 1923 ft 140 kts 261°
2026-05-06 20:52 48.36815 11.83756 1728 ft 138 kts 262°
2026-05-06 20:52 48.36707 11.82314 1554 ft 139 kts 262°
2026-05-06 20:52 48.36599 11.80927 1477 ft 121 kts 262°
2026-05-06 20:53 48.36531 11.80107 1485 ft 35 kts 263°
2026-05-06 20:53 48.36486 11.79799 1481 ft 29 kts 244°
2026-05-06 20:53 48.36379 11.79557 1485 ft 27 kts 234°
2026-05-06 20:53 48.36277 11.79351 1480 ft 21 kts 228°
2026-05-06 20:54 48.36149 11.79310 1482 ft 19 kts 175°
2026-05-06 20:54 48.36012 11.79329 1479 ft 20 kts 173°
2026-05-06 20:54 48.35878 11.79380 1477 ft 20 kts 169°
2026-05-06 20:54 48.35735 11.79405 1485 ft 21 kts 174°
2026-05-06 20:55 48.35656 11.79397 1482 ft 9 kts 232°
2026-05-06 20:55 48.35646 11.79310 1475 ft 6 kts 263°
2026-05-06 20:55 48.35644 11.79280 1475 ft 1 kts 263°
2026-05-06 20:55 48.35643 11.79277 1476 ft 0 kts 263°